Regional Weather Roundup
Issued by NWS Wakefield, VA

Home | Current Version | Previous Version | Graphics & Text | Print | Product List | Glossary On
Versions: 1 2 3 4 5 6 7 8 9 10 11 12 13 14 15 16 17 18 19 20 21 22 23 24 25 26 27
000
ASUS41 KAKQ 191710
RWRAKQ

REGIONAL WEATHER ROUNDUP
NATIONAL WEATHER SERVICE WAKEFIELD VA
100 PM EDT SAT APR 19 2014

Note: "fair" indicates few or no clouds below 12,000 feet with no
significant weather and/or obstructions to visibility. * = Denotes
station may not report precipitation (e.g., rain,snow,etc.),
thunder or fog.

VAZ042-051-052>054-056-191800-
NORTHERN VIRGINIA

CITY           SKY/WX    TMP DP  RH WIND       PRES   REMARKS
WASH NATIONAL  CLOUDY    67  38  34 N9        30.27F
DULLES         PTSUNNY   63  34  33 N12G20    30.27F
FORT BELVOIR   PTSUNNY   65  34  31 VRB3      30.27F
QUANTICO       PTSUNNY   62  38  40 NE13      30.28F
FREDERICKSBRG* PTSUNNY   63  41  45 NE8       30.26F
STAFFORD*      PTSUNNY   64  39  39 NE17G23   30.30F
WARRENTON      PTSUNNY   65  46  49 NE10      30.27F
CULPEPER*      PTSUNNY   66  34  30 NE9       30.27F
MANASSAS*      NOT AVBL
LEESBURG*      PTSUNNY   64  41  42 NE12G18   30.28F
WINCHESTER     PTSUNNY   63  36  36 NE7       30.27F
$$

VAZ048-049-060>072-079>083-191800-
CENTRAL AND SOUTH CENTRAL VIRGINIA...AND NORTH CENTRAL NORTH CAROLINA

CITY           SKY/WX    TMP DP  RH WIND       PRES   REMARKS
RICHMOND       CLOUDY    63  39  41 NE13      30.24F
CHESTERFIELD*  NOT AVBL
HANOVER        PTSUNNY   62  39  42 VRB5      30.26F
TAPPAHANNOCK*  PTSUNNY   61  37  41 NE7       30.26S
CHARLOTTSVILLE PTSUNNY   62  40  44 E13       30.24F
ORANGE*        PTSUNNY   63  41  45 N13       30.28F
LOUISA*        PTSUNNY   64  41  42 E15       30.24F
FARMVILLE*     CLOUDY    64  41  42 NE12G21   30.21F
SOUTH HILL*    CLOUDY    52  45  76 NE8       30.27S
ROANOKE RAPIDS LGT RAIN  52  46  82 NE12G22   30.21F
RALEIGH        LGT RAIN  50  46  86 NE10      30.20S FOG
$$

VAZ088>098-191800-
SOUTHEAST VIRGINIA

CITY           SKY/WX    TMP DP  RH WIND       PRES   REMARKS
NORFOLK        LGT RAIN  48  42  80 NE12      30.24S
VIRGINIA BEACH LGT RAIN  48  42  80 NE13      30.24S
NORFOLK NAVAL  LGT RAIN  50  43  77 NE15      30.26S
WEST POINT*    CLOUDY    61  37  41 NE10G16   30.27S
NEWPORT NEWS   CLOUDY    54  46  74 NE10      30.25R
LANGLEY AFB    LGT RAIN  50  49  98 NE9       30.26S
FORT EUSTIS    CLOUDY    52  47  83 VRB6      30.23S
WILLIAMSBURG*  CLOUDY    55  48  76 NE5       30.26S
FRANKLIN*      CLOUDY    50  50 100 NE9       30.23S
WAKEFIELD      LGT RAIN  51  47  86 VRB7      30.25R
$$

VAZ020-022-025-037-045-191800-
WESTERN AND SOUTHWEST VIRGINIA

CITY           SKY/WX    TMP DP  RH WIND       PRES   REMARKS
STAUNTON*      PTSUNNY   63  39  41 NE10G17   30.25F
HOT SPRINGS VA CLOUDY    54  36  50 E8G17     30.29S
LYNCHBURG      CLOUDY    65  39  38 NE12G22   30.23F
DANVILLE       CLOUDY    56  45  66 E5        30.22R
MARTINSVILLE   CLOUDY    57  44  60 NE8       30.24F
ROANOKE        CLOUDY    61  39  44 NE10      30.24S
BLACKSBURG     CLOUDY    57  43  58 NE8       30.25S
DUBLIN*        CLOUDY    59  40  48 E9        30.24S
MARION*        PTSUNNY   60  34  37 E9G21     30.23F
HILLSVILLE*    PTSUNNY   57  25  28 NE13G18   30.24F
RICHLANDS*     PTSUNNY   66  33  28 N8G20     30.21S
WISE*          MOSUNNY   66  30  26 N16G25    30.22S
ABINGDON*      PTSUNNY   67  33  28 SE15G23   30.18F
$$

MDZ021>025-VAZ099-100-191800-
SOUTHERN MARYLAND AND THE DELMARVA PENINSULA

CITY           SKY/WX    TMP DP  RH WIND       PRES   REMARKS
PATUXENT RIVER CLOUDY    58  42  55 N9        30.26F
BAY BRIDGE APT MOSUNNY   61  43  51 W3        30.28S
LEONARDTOWN    PTSUNNY   57  37  47 NE6       30.28S
DOVER          SUNNY     62  43  49 N10       30.23F
GEORGETOWN     PTSUNNY   61  41  47 NE7G17    30.26F
EASTON         SUNNY     64  45  48 NE5       30.30F
CAMBRIDGE      MOSUNNY   61  41  48 N9        30.25S
SALISBURY      PTSUNNY   65  40  39 NE9       30.24F
OCEAN CITY     PTSUNNY   57  38  48 NE12      30.26F
WALLOPS ISLAND PTSUNNY   58  46  64 MISG      30.26S
ACCOMACK*      CLOUDY    55  37  50 E13       30.25S
$$

NCZ012>017-030>032-191800-
EASTERN NORTH CAROLINA

CITY           SKY/WX    TMP DP  RH WIND       PRES   REMARKS
ELIZABETH CITY CLOUDY    51  43  74 NE17G28   30.20F
AHOSKIE*       CLOUDY    50  45  83 N8G16     30.22R
EDENTON*       DRIZZLE   50  46  84 NE8       30.19F
CURRITUCK*     DRIZZLE   50  43  77 NE17G24   30.21F
KILL DEVIL HLS LGT RAIN  49  46  92 NE10G20   30.17S
MANTEO         LGT RAIN  49  47  92 E20G28    30.17F
CAPE HATTERAS  LGT RAIN  54  54 100 NE14G29   30.10S
GOLDSBORO      LGT RAIN  50  50 100 NE13G18   30.12F
WASHINGTON     CLOUDY    50  46  85 NE13G18   30.15S
GREENVILLE     LGT RAIN  50  46  87 NE13G18   30.18S
NEW BERN       CLOUDY    55  51  86 NE15G26   30.10F
WILMINGTON     CLOUDY    57  54  89 N15       30.03F FOG
$$

VAZ048-191800-
ELSEWHERE

CITY           SKY/WX    TMP DP  RH WIND       PRES   REMARKS
HARRISBURG PA  PTSUNNY   64  21  19 N12       30.27F
BALTIMORE      PTSUNNY   64  35  34 E9        30.26F
ANNAPOLIS      MOSUNNY   59  35  40 N7        30.28F
ANDREWS AFB    PTSUNNY   64  37  36 NE14      30.26F
WILMINGTON DE  SUNNY     67  30  25 NE10G16   30.26F
PHILADELPHIA   PTSUNNY   66  28  24 N10       30.26F
WILDWOOD NJ*   PTSUNNY   59  45  58 S6        30.27F
ATLANTIC CITY  MOSUNNY   66  34  30 N12       30.23F
HENDERSON NC   LGT RAIN  49  45  88 NE6       30.20S
GREENSBORO     CLOUDY    53  43  68 NE13      30.18F
ROCKY MOUNT    CLOUDY    50  46  86 NE12G20   30.18F
FAYETTEVILLE   CLOUDY    53  50  89 NE18G25   30.10F
CHARLOTTE      LGT RAIN  50  49  96 N10       30.16S FOG
$$

VAZ100-191800-
MARINE

STATION/POSITION TIME  TEMP    WIND        PRES    WAVE   SWELL
                       AIR SEA DIR/SP/G            HT/PER HT/PER
                 (UTC) (F)     (DEG/KT/KT) (MB)    (FT/S) (FT/S)
44066 TX TWR #4  1700   44 44  310/  8/ 10 1024.2F   5/11   5/11
CAPE MAY NJ      1700   49 53  270/  6/  6 1024.5F
LEWES DE         1700   49 49  330/  4/  5 1024.3F
15NM E FENWICK I 1700   46 46              1024.6F   5/11
OCEAN-CITY-INLET 1700   50 46   70/  6/ 10 1024.5R
WACHAPREAGUE VA  1700   50 51   70/  9/ 12 1024.2R
THOMAS POINT MD  1700   53 53  360/  4/  4 1025.9F
GOOSES REEF MD   1700   51     360/  6/  8 1026.9S
COVE POINT MD    1700   50     350/ 13/ 14 1024.9R
SOLOMONS ISLAND  1700      52                N/A
BISHOPS HEAD MD  1700   58 56   10/  7/ 11 1024.2R
PINEY POINT MD   1700           90/  4/  5   N/A
POTOMAC MD       1700   53      30/  8/ 10 1024.3R
CAMBRIDGE MD     1700   58 55   30/  8/ 10 1024.2F
LEWISETTA VA     1700   54 54   70/  4/  6 1024.8R
RAPPAHANNOCK LGT 1700           20/ 15/ 16 1024.8S
STINGRAY PT      1700   50      40/ 14/ 16 1024.6R
YORK RVR RNG VA  1700   50      40/ 18/ 20 1023.6S
YORKTOWN VA      1700   52 54   40/ 13/ 16 1024.1S
JAMESTOWN VA     1700   51      70/  6/ 10   N/A
DOMINION TERM VA 1700   49      30/  4/  8 1024.2R
KIPTOPEKE VA     1700      52   70/  9/ 14   N/A
CHES BAY BRIDGE  1700   47 51   30/ 17/ 18 1024.0S
CAPE HENRY VA    1700   47      40/ 14/ 16   N/A
CHESAPEAKE LGHT  1600   46      50/ 17/ 18 1024.4F
WILLOUBY STN VA  1700   48      50/ 13/ 16 1023.4S
S CRANEY ISL VA  1700           20/ 12/ 14 1024.2R
CAPE HENRY BUOY  1700      47                N/A     4/12   2/12
1ST LANDING BUOY 1700      45                N/A     4/10   3/10
64NM E OF VA BCH 1700   51 49   20/ 16/ 17 1023.0R   7/10   5/10
DUCK PIER NC     1700   48 49   40/ 20/ 23 1021.3F
44100 DUCK FRF   1700      48                N/A     6/11   2/11
44056 DUCK FRF   1700      47                N/A     6/11   2/11
OREGON INLET NC  1700   50 51   30/ 19/ 23 1020.9F
HATTERAS NC      1700   55 56   40/ 15/ 24 1019.7F
CAPE LOOKOUT NC  1600   58      30/ 27/ 31 1017.4F
FRYING PAN SHLS  1700   65 68   50/ 21/ 25 1013.4F   7/ 7   3/10
$$



USA.gov is the U.S. government's official web portal to all federal, state and local government web resources and services.